Find Kosmos-2330

NORAD ID: 23792 Int'l Des: 1996-009 Owner: VKS Country: RU operational
LEOCIRCULARPOLAR

Current View

Loading 3D Globe...

About Kosmos-2330

Description loading...

Upcoming Passes

Passes for default location (London). Set your location on the main map for personalized predictions.

Altitude History

Loading altitude history...

Two-Line Element Set

1 23792U 96009F 26149.49102292 .00000051 00000-0 22862-3 0 9997
2 23792 82.5820 355.8098 0012343 118.1048 242.1291 12.60977028393282
Epoch: May 29, 2026 • Age: 19 hours

Current Status

Altitude 1441.0 km
Velocity 7.14 km/s
Sub-Earth Point -36.09°S, 2.58°E
Launch Date Feb 19, 1996
Age 30.2 years
Type other

Technical Details

Classification Payload
Mass 225.00 kg
Dry Mass 225.00 kg
Total Mass 225.00 kg
Length 1.60 m
Diameter 0.80 m
Span 7.00 m
Shape Cyl + Ant
Manufacturer NPOPMR
Bus Type Strela-3
Phase Status In Orbit
Owner/State VKS/RU

Most Searched